Theta_e
326 326 327 327 327 326 326 325 324 324 324 324 324 323 323 323 323 323 323 323 321 320 319 319 318 321 310 300 303 314 324 322 312 310 304 302 298 297 293 294 296 294 295 298 298 298 297
328 328 328 328 328 327 327 326 326 325 325 325 325 324 323 323 323 323 323 322 321 320 319 318 318 320 306 293 308 312 309 308 308 306 302 301 299 300 296 295 294 296 297 297 298 297 296
328 327 326 326 327 328 327 327 327 326 326 326 326 325 324 323 323 323 323 322 321 320 319 318 318 315 301 298 308 307 308 306 306 305 301 303 303 298 297 294 298 296 292 293 295 296 295
323 323 322 323 323 323 324 324 324 324 324 325 325 324 323 323 322 322 322 321 320 320 319 318 318 308 294 307 305 306 306 304 306 306 304 305 304 300 298 297 296 291 290 284 291 295 295
319 319 319 318 319 319 320 320 321 322 322 324 324 323 322 322 321 321 320 319 319 318 317 318 305 300 294 311 302 305 304 303 304 304 304 305 302 297 296 290 285 286 280 284 288 294 293
318 317 317 317 316 316 316 317 319 320 320 320 322 321 320 320 320 320 319 317 317 314 312 312 306 294 297 297 303 304 303 304 301 300 300 297 294 290 289 285 279 280 282 284 285 290 290
316 316 316 316 315 315 315 315 315 317 318 318 318 319 319 319 320 319 313 299 295 295 296 295 295 294 298 303 304 302 303 301 300 296 288 292 286 285 288 290 286 283 284 284 287 291 290
314 314 314 315 315 315 315 315 315 315 315 316 316 317 318 318 319 318 303 297 295 295 291 298 297 297 299 302 296 300 303 294 293 288 290 287 285 289 291 291 290 287 284 284 287 290 290
314 314 314 314 315 315 315 314 315 314 314 314 314 316 315 316 317 309 298 298 304 303 291 294 298 297 298 299 294 295 299 295 291 287 287 284 288 292 290 288 287 285 284 284 284 287 288
314 313 313 313 313 314 314 314 314 314 313 313 312 314 314 315 310 304 295 302 302 302 285 290 292 297 299 299 292 300 300 296 291 288 287 286 291 290 288 287 287 282 287 287 286 282 280
314 314 313 313 313 313 313 314 314 313 313 313 312 312 314 315 308 303 298 303 301 298 275 292 293 300 299 293 294 294 298 295 289 289 287 285 286 286 286 288 288 286 288 286 285 281 279
312 312 313 313 313 313 312 312 312 312 313 313 313 312 313 308 305 305 304 301 298 285 275 289 293 292 291 292 293 294 293 295 294 289 288 288 290 289 288 289 288 288 284 283 281 279 275
310 310 311 311 312 312 312 312 312 311 311 311 312 312 310 308 300 304 302 293 282 278 289 287 288 291 289 288 290 290 288 285 284 280 279 285 286 289 290 286 287 285 281 276 274 273 274
309 309 309 310 310 311 311 312 312 311 310 311 311 311 306 308 307 304 297 287 277 283 286 291 291 290 287 288 288 288 285 283 287 283 280 278 279 286 288 287 283 282 282 276 273 273 275
308 308 307 308 309 310 310 311 311 311 311 311 310 299 300 304 306 299 293 279 277 282 289 288 288 284 285 287 286 286 283 284 285 285 281 279 280 287 288 288 288 282 280 284 278 277 274
307 307 306 306 307 309 309 309 310 310 311 310 302 297 297 303 302 300 290 284 285 290 290 289 282 286 282 284 284 285 285 287 287 286 286 283 279 285 286 287 287 285 286 279 278 273 273
307 306 306 306 306 308 308 308 309 310 310 310 299 293 297 301 301 291 280 283 287 292 292 287 285 284 284 284 285 283 285 288 288 288 288 286 283 281 284 283 283 282 280 281 282 279 275
307 307 307 307 306 307 307 307 308 309 309 301 292 283 297 299 286 285 281 287 292 290 292 290 290 288 286 286 283 283 284 287 289 288 286 287 283 279 281 287 287 284 282 282 278 277 278
307 307 307 307 307 307 306 306 307 307 308 295 288 288 297 296 281 280 285 288 289 288 288 289 288 290 288 285 281 284 285 289 290 289 286 288 280 276 276 280 282 280 282 286 285 283 278
307 307 307 307 307 307 306 305 306 306 307 296 289 282 287 291 292 287 284 283 284 289 289 291 289 290 288 284 286 283 284 289 289 288 293 290 282 278 275 278 281 279 281 283 282 277 277
307 307 307 307 306 306 305 305 305 306 306 297 291 283 285 278 285 286 284 283 282 283 289 290 285 287 285 282 282 282 284 286 287 289 285 284 276 278 281 281 281 280 280 281 280 281 277
307 307 306 306 306 306 306 305 304 304 305 297 289 287 286 284 285 282 284 283 283 284 287 285 285 286 286 283 284 283 285 283 282 283 283 284 277 278 277 280 280 278 280 281 281 282 281
306 306 306 306 306 306 306 306 305 304 302 293 295 293 290 287 282 279 278 282 284 287 287 289 288 287 284 285 288 288 287 286 284 281 279 282 280 278 273 276 275 270 270 274 276 273 272
305 305 305 305 306 306 306 305 305 304 303 294 295 294 288 282 285 284 285 285 284 285 284 286 286 283 283 287 287 287 285 284 283 283 285 280 279 278 273 269 265 271 275 275 273 272 272
304 304 305 304 305 305 305 305 305 305 304 293 294 292 288 283 285 283 284 285 285 284 283 284 286 287 289 287 281 272 273 272 273 282 281 283 279 276 272 271 272 272 273 271 270 267 271
304 304 304 305 305 305 305 304 304 304 304 297 294 295 292 284 284 288 284 285 281 282 282 283 286 287 287 284 279 270 268 272 270 274 279 281 282 276 270 270 268 266 272 276 275 265 272
303 303 303 304 304 304 304 304 304 304 303 299 294 296 291 286 288 290 286 284 286 284 282 282 284 282 285 280 277 273 270 271 268 269 273 274 274 272 272 272 269 268 271 274 268 267 271
302 301 302 303 304 304 304 303 303 303 303 299 294 298 293 287 288 290 290 287 287 286 281 281 282 280 280 277 276 272 270 275 275 274 270 268 268 266 269 269 265 270 271 266 267 272 272
302 301 301 302 302 303 303 302 302 302 302 301 293 298 298 291 286 288 287 287 287 288 286 285 280 280 282 278 273 277 276 267 267 265 272 269 265 268 268 266 269 270 269 271 271 271 272
Wind_Speed
9 9 9 9 10 11 11 11 11 12 14 15 16 16 17 18 19 20 20 21 19 18 17 16 14 12 5 1 10 5 6 4 2 2 4 5 5 5 5 5 2 5 3 4 3 4 5
7 9 10 9 10 9 10 11 11 11 12 13 15 17 18 20 20 21 21 21 20 18 16 14 11 8 1 5 0 6 4 2 3 2 2 3 5 5 3 4 6 4 3 4 5 4 4
16 16 16 16 16 12 12 12 13 13 14 14 13 16 18 20 22 23 24 22 21 19 17 12 6 2 2 13 1 4 5 2 2 2 2 2 1 2 1 3 1 2 4 4 8 6 6
14 13 13 13 14 14 14 14 14 14 15 16 14 14 17 20 22 24 25 23 21 16 10 4 4 3 8 3 1 1 2 2 1 2 2 3 1 2 3 1 4 2 1 3 3 8 5
12 13 14 14 14 14 14 15 15 16 17 17 15 15 18 20 21 24 27 26 15 1 4 8 4 3 9 2 1 4 3 2 1 1 2 1 1 4 2 5 5 3 6 7 9 10 4
13 13 13 14 14 15 16 15 16 15 17 18 17 15 20 21 21 23 27 21 4 2 2 2 1 2 4 3 2 2 1 1 1 1 3 1 3 2 2 4 9 9 7 6 8 5 3
13 13 14 14 15 15 16 16 17 17 17 17 18 16 17 21 22 23 13 6 9 5 6 6 5 6 2 2 1 2 3 3 1 2 4 3 3 12 16 14 3 4 5 6 6 6 6
12 13 14 14 15 15 16 16 16 17 18 18 19 19 20 21 22 20 4 6 1 3 13 9 11 8 7 3 2 4 6 5 4 6 2 2 14 8 3 6 7 7 5 14 8 7 8
11 12 13 14 14 14 15 15 16 17 17 18 18 18 19 23 26 4 3 2 2 2 3 9 4 2 1 6 5 4 8 5 5 5 7 8 11 3 3 5 8 6 9 8 10 6 5
10 11 11 11 12 13 12 12 13 15 16 17 17 17 18 20 4 4 1 5 5 3 3 9 2 1 1 2 2 2 5 4 3 6 6 7 7 11 7 10 8 6 7 11 8 3 13
12 12 11 11 12 13 14 13 13 14 13 15 17 18 18 11 4 3 3 5 2 3 7 2 1 2 1 3 4 1 1 2 5 5 4 9 3 3 6 11 7 10 4 8 5 5 5
13 14 14 14 12 12 12 13 14 14 14 14 16 16 15 3 2 4 6 4 3 5 11 2 2 1 1 2 2 2 1 1 1 2 4 11 2 3 7 3 6 1 1 4 4 3 9
14 15 15 15 15 15 15 13 13 15 15 16 18 19 11 3 4 4 4 4 5 5 5 2 3 3 2 3 3 4 3 2 4 2 3 4 5 4 4 3 3 3 5 5 4 1 11
14 15 16 16 16 16 16 15 14 14 15 16 19 20 4 3 4 5 3 4 5 4 6 4 7 5 4 1 2 3 3 3 5 1 1 3 7 3 2 6 5 6 8 6 7 5 7
14 15 16 17 17 16 16 16 15 14 14 16 16 4 3 3 3 3 4 2 6 3 4 7 5 3 3 2 5 5 3 4 2 5 5 3 6 1 4 1 6 1 5 6 4 6 5
15 15 16 16 16 16 15 16 16 14 13 16 5 4 4 5 3 1 2 6 5 1 4 4 2 3 3 4 5 5 4 1 5 3 2 2 8 4 4 1 2 5 4 2 1 4 12
15 15 16 16 16 15 14 15 15 15 12 15 2 5 3 5 1 3 4 6 4 5 3 2 1 4 2 4 3 2 5 6 4 3 2 1 5 3 3 4 7 1 3 4 3 5 8
16 16 16 15 15 14 13 14 15 15 12 5 1 3 3 3 2 1 3 4 3 3 1 4 3 6 6 6 4 6 7 8 4 3 4 3 2 5 8 13 10 5 4 2 7 13 6
17 17 17 15 13 12 13 13 14 13 8 1 2 4 2 2 4 3 4 5 3 4 6 3 3 3 1 4 3 4 4 2 2 3 3 4 3 7 8 3 3 2 2 1 7 5 13
18 18 17 16 14 12 12 12 13 12 12 3 1 4 3 1 1 3 5 5 4 4 5 4 4 3 3 5 6 4 4 2 2 5 5 5 3 7 13 10 7 14 18 18 11 10 16
19 19 19 18 17 15 14 13 11 12 10 2 2 5 4 3 4 6 2 1 3 5 3 4 2 5 3 3 3 6 4 4 5 6 2 7 7 8 13 15 14 17 19 18 21 23 15
21 21 20 19 18 15 15 12 12 11 9 3 3 3 1 3 2 5 5 5 4 6 5 4 3 7 4 5 7 3 4 4 8 4 6 3 7 4 15 16 14 16 18 19 20 23 23
22 19 20 20 19 17 15 15 14 11 6 3 2 3 1 3 3 3 6 7 6 5 7 10 5 5 7 14 8 6 5 7 7 5 6 5 3 3 9 6 3 8 4 3 4 7 6
23 22 22 22 22 19 19 17 17 15 12 4 3 2 5 6 7 7 5 6 8 8 8 7 5 3 6 4 3 5 8 12 15 13 9 10 7 4 7 4 3 3 1 3 2 6 6
25 24 24 23 23 20 22 20 19 17 17 4 3 4 4 6 7 9 13 10 5 5 4 6 10 3 1 3 3 5 5 6 2 3 8 13 7 3 2 2 3 1 6 5 3 3 10
26 25 24 23 22 21 22 21 21 19 18 6 4 4 6 4 9 10 8 9 6 4 7 5 1 1 1 3 3 4 4 3 5 2 4 1 3 1 2 4 5 1 9 5 4 5 15
24 23 24 24 24 22 21 19 20 19 19 9 4 8 5 8 5 7 6 5 4 4 3 2 3 4 3 3 4 4 4 3 3 4 4 3 0 6 7 6 2 7 14 8 1 6 18
24 24 22 23 23 22 22 19 17 18 16 11 5 9 8 4 5 6 7 5 2 3 5 3 1 2 2 5 4 4 4 5 2 1 4 5 4 3 1 4 5 15 4 6 7 9 11
22 22 22 21 22 23 18 20 18 16 17 16 8 5 10 6 1 1 2 2 2 2 2 3 4 2 3 2 2 3 3 1 4 4 5 1 2 1 2 3 4 6 7 5 7 11 11
Wind_Direction
23 19 19 13 10 9 5 4 2 360 356 352 348 342 337 333 330 325 321 318 316 312 309 306 311 328 349 320 252 168 163 217 215 192 220 189 170 176 195 205 239 221 241 221 193 216 230
17 6 2 358 355 354 354 351 349 344 342 341 339 336 332 329 327 322 318 315 310 303 294 293 300 317 135 254 184 153 170 167 227 207 250 208 210 188 225 236 180 190 229 256 247 244 252
36 34 25 23 18 6 3 347 337 339 335 330 331 335 330 329 328 323 319 313 307 301 297 287 274 274 277 242 242 172 164 200 177 198 226 272 214 208 200 282 255 166 281 305 222 205 234
30 24 18 17 17 11 4 5 2 354 347 338 338 334 331 331 328 323 318 315 311 301 296 252 187 150 245 289 307 192 168 281 232 232 229 260 189 220 215 223 8 304 19 292 275 153 234
23 19 14 11 9 5 2 360 355 354 355 353 344 339 337 331 329 324 321 321 317 355 90 140 122 147 265 325 222 234 169 250 176 256 269 284 127 205 111 107 3 314 248 224 309 197 132
16 13 11 7 3 0 357 356 353 353 354 351 338 341 338 329 330 328 321 318 304 12 127 198 303 33 284 249 189 170 167 141 150 114 3 15 36 194 74 128 219 205 219 237 231 212 186
8 6 3 1 359 357 355 353 351 350 352 349 346 338 330 328 330 330 333 0 10 340 22 220 218 241 223 195 159 182 180 121 108 116 202 221 164 215 208 208 229 192 210 236 231 190 169
5 2 358 355 354 354 354 352 350 351 350 347 343 339 337 333 329 324 15 62 178 216 305 236 246 262 263 243 288 233 133 157 155 210 183 8 247 241 236 216 243 260 278 265 297 238 194
6 3 360 353 348 348 349 348 348 351 352 349 344 339 340 331 323 25 71 80 290 136 281 302 226 205 256 151 209 239 152 164 181 200 193 186 225 77 199 248 235 226 236 258 251 306 240
349 350 351 349 347 345 341 343 348 348 347 343 338 338 339 336 16 336 40 346 333 106 355 276 219 329 349 102 250 291 191 176 208 224 213 226 264 251 218 245 180 249 220 246 263 275 274
339 333 336 340 344 347 348 346 348 345 342 337 331 335 336 335 296 335 305 319 310 70 335 238 225 329 135 192 146 253 320 95 223 210 137 247 259 256 211 229 158 242 205 232 233 233 324
336 339 342 338 335 336 339 340 341 337 335 331 323 325 332 310 298 269 322 331 63 50 254 251 137 186 216 220 216 140 145 34 197 248 209 238 247 265 218 220 176 173 73 23 44 101 264
337 337 336 335 335 332 329 329 333 334 332 327 320 320 315 285 238 345 342 41 42 174 322 9 32 346 304 237 256 180 168 200 211 326 278 330 233 253 179 259 14 119 76 313 304 293 248
337 339 339 336 334 329 328 328 324 328 327 324 319 317 308 234 295 9 23 60 206 227 265 18 341 315 233 276 259 162 132 273 256 135 338 211 325 169 165 182 198 182 169 182 255 228 269
331 332 331 330 331 339 339 332 322 319 320 323 326 319 307 278 345 100 95 170 225 252 347 355 339 357 309 38 18 12 248 248 306 176 185 287 268 269 184 231 144 168 184 237 296 275 284
322 320 322 324 322 330 335 336 331 318 321 327 321 324 290 304 352 91 170 232 244 360 7 355 223 239 259 316 19 34 306 13 345 62 327 322 301 243 318 213 220 175 184 350 334 274 260
311 312 317 319 325 328 334 333 329 327 327 331 3 324 282 338 50 55 205 233 259 299 19 301 301 309 314 346 301 329 273 317 4 325 354 333 210 285 22 204 220 275 259 233 231 189 272
300 297 302 310 320 323 326 327 332 330 332 38 22 315 296 19 42 277 224 237 283 263 47 280 231 229 227 208 233 225 233 207 330 15 15 19 327 278 237 242 226 223 261 273 255 267 242
294 299 294 298 299 305 310 317 320 330 342 65 286 259 314 96 218 236 274 282 285 272 264 258 284 211 335 184 275 233 242 157 66 73 69 336 314 309 314 359 15 69 41 335 274 266 256
292 291 293 286 285 295 298 303 312 316 323 103 291 307 315 30 193 253 268 268 259 299 263 223 231 223 204 241 213 256 254 256 48 150 162 128 237 226 263 265 313 289 289 293 282 272 292
287 288 284 283 282 282 284 292 300 302 307 157 201 241 211 221 229 224 221 286 274 296 309 241 254 226 226 278 263 236 238 312 293 271 262 153 236 230 257 271 267 272 276 274 269 268 259
284 282 280 283 274 275 281 281 286 293 300 241 202 226 295 241 246 182 202 208 223 279 251 256 264 299 296 247 245 263 246 208 250 292 187 187 262 273 273 266 269 271 271 267 270 273 269
282 284 287 283 276 268 267 266 261 264 265 256 219 285 151 201 216 160 215 220 216 195 243 232 277 287 285 258 239 225 229 265 244 221 220 218 236 243 269 284 318 288 320 357 340 52 330
284 279 283 282 274 270 262 257 256 242 225 189 249 248 237 238 218 214 211 217 227 230 245 245 241 219 247 47 304 273 255 249 255 248 233 252 257 244 269 47 219 193 151 83 9 76 14
285 284 281 281 275 269 271 266 256 249 244 183 209 224 250 251 226 225 238 234 253 266 254 255 254 208 194 126 236 327 318 358 270 208 215 220 218 254 264 231 343 71 27 343 14 256 15
287 285 280 280 272 266 266 268 261 256 244 232 214 206 241 258 237 221 228 223 217 218 280 252 90 47 188 208 188 202 228 231 289 196 25 93 216 216 28 255 246 141 312 312 271 262 7
286 288 289 282 281 272 272 268 259 257 248 241 229 213 224 256 237 184 209 200 167 189 223 212 185 198 198 200 226 196 244 191 244 199 176 141 144 222 247 257 97 331 309 312 200 326 336
281 283 284 287 285 283 277 278 269 261 248 253 248 199 222 216 232 225 205 183 166 173 218 196 169 223 182 204 189 208 184 219 213 239 174 165 167 211 240 229 245 345 44 62 315 312 324
284 283 284 282 285 279 279 283 266 251 249 257 263 224 216 217 208 346 56 30 82 173 172 196 248 184 213 184 223 153 203 52 168 266 18 122 316 353 1 76 112 19 53 7 338 325 330